Location: Unnamed
(48.6007°N, 2.4808°E)
Time: 09:07:45
(UTC+02:00)

PCSat - Pass Details

Date: 29 March 2023
Orbit: 783 x 794 km, 67.1° (Epoch: 29 May)

Event Time Altitude Azimuth Distance (km) Brightness Sun altitude
Rises 01:27:28 0° 327° (NNW) 3,301 13.6 -37.9°
Reaches altitude 10° 01:30:01 10° 334° (NNW) 2,370 12.7 -37.9°
Enters shadow 01:32:36 26° 351° (N) 1,528 11.5 -38.0°
